ProjectID,Date,Electric Generation,Electric Utility Import,Facility Electric Load
,YYYY-MM-DD,kW,kW,kW
382,2016-09-01,0.0,,0.0
382,2016-09-02,0.0,,0.0
382,2016-09-03,0.0,,0.0
382,2016-09-04,0.0,,0.0
382,2016-09-05,0.0,,0.0
382,2016-09-06,0.0,,0.0
382,2016-09-07,0.0,,0.0
382,2016-09-08,0.0,,0.0
382,2016-09-09,0.0,,0.0
382,2016-09-10,0.0,,0.0
382,2016-09-11,0.0,,0.0
382,2016-09-12,0.0,,0.0
382,2016-09-13,0.0,,0.0
382,2016-09-14,0.0,,0.0
382,2016-09-15,0.0,,0.0
382,2016-09-16,0.0,,0.0
382,2016-09-17,0.0,,0.0
382,2016-09-18,0.0,,0.0
382,2016-09-19,0.0,,0.0
382,2016-09-20,0.0,,0.0
382,2016-09-21,0.0,,0.0
382,2016-09-22,0.0,,0.0
382,2016-09-23,0.0,,0.0
382,2016-09-24,0.0,,0.0
382,2016-09-25,0.0,,0.0
382,2016-09-26,0.0,,0.0
382,2016-09-27,32.27625,,32.27625
382,2016-09-28,15.904166666666667,,15.904166666666667
382,2016-09-29,10.334583333333335,,10.334583333333335
382,2016-09-30,8.732916666666666,,8.732916666666666
382,2016-10-01,11.079166666666666,,11.079166666666666
382,2016-10-02,10.628333333333334,,10.628333333333334
382,2016-10-03,28.75458333333333,,28.75458333333333
382,2016-10-04,18.527916666666666,,18.527916666666666
382,2016-10-05,37.63916666666666,,37.63916666666666
382,2016-10-06,40.50125,,40.50125
382,2016-10-07,40.615833333333335,,40.615833333333335
382,2016-10-08,13.109583333333331,,13.109583333333331
382,2016-10-09,3.536666666666667,,3.536666666666667
382,2016-10-10,43.254999999999995,,43.254999999999995
382,2016-10-11,40.49166666666667,,40.49166666666667
382,2016-10-12,25.287916666666664,,25.287916666666664
382,2016-10-13,24.257916666666663,,24.257916666666663
382,2016-10-14,40.282083333333325,,40.282083333333325
382,2016-10-15,36.538333333333334,,36.538333333333334
382,2016-10-16,31.76583333333333,,31.76583333333333
382,2016-10-17,33.154999999999994,,33.154999999999994
382,2016-10-18,34.18458333333333,,34.18458333333333
382,2016-10-19,30.15958333333333,,30.15958333333333
382,2016-10-20,20.889999999999997,,20.889999999999997
382,2016-10-21,8.087083333333334,,8.087083333333334
382,2016-10-22,7.427083333333332,,7.427083333333332
382,2016-10-23,35.9125,,35.9125
382,2016-10-24,26.714583333333334,,26.714583333333334
382,2016-10-25,26.36583333333333,,26.36583333333333
382,2016-10-26,32.17625,,32.17625
382,2016-10-27,4.06625,,4.06625
382,2016-10-28,19.394999999999996,,19.394999999999996
382,2016-10-29,25.574166666666667,,25.574166666666667
382,2016-10-30,25.439999999999998,,25.439999999999998
382,2016-10-31,33.79791666666666,,33.79791666666666
382,2016-11-01,32.13875,,32.13875
382,2016-11-02,26.495,,26.495
382,2016-11-03,11.55958333333333,,11.55958333333333
382,2016-11-04,29.219166666666666,,29.219166666666666
382,2016-11-05,30.27874999999999,,30.27874999999999
382,2016-11-06,27.183333333333326,,27.183333333333326
382,2016-11-07,28.967083333333335,,28.967083333333335
382,2016-11-08,28.054166666666664,,28.054166666666664
382,2016-11-09,6.600416666666668,,6.600416666666668
382,2016-11-10,27.377083333333335,,27.377083333333335
382,2016-11-11,26.268749999999997,,26.268749999999997
382,2016-11-12,28.47875,,28.47875
382,2016-11-13,27.16125,,27.16125
382,2016-11-14,24.08749999999999,,24.08749999999999
382,2016-11-15,5.220000000000001,,5.220000000000001
382,2016-11-16,25.197083333333328,,25.197083333333328
382,2016-11-17,25.252916666666664,,25.252916666666664
382,2016-11-18,25.600416666666657,,25.600416666666657
382,2016-11-19,23.58791666666666,,23.58791666666666
382,2016-11-20,11.599166666666662,,11.599166666666662
382,2016-11-21,8.062083333333332,,8.062083333333332
382,2016-11-22,25.872916666666665,,25.872916666666665
382,2016-11-23,26.071249999999996,,26.071249999999996
382,2016-11-24,8.08125,,8.08125
382,2016-11-25,12.194583333333329,,12.194583333333329
382,2016-11-26,18.349999999999994,,18.349999999999994
382,2016-11-27,0.0008333333333333334,,0.0008333333333333334
382,2016-11-28,22.86333333333333,,22.86333333333333
382,2016-11-29,1.0191666666666666,,1.0191666666666666
382,2016-11-30,0.0004166666666666667,,0.0004166666666666667
382,2016-12-01,18.467916666666664,,18.467916666666664
382,2016-12-02,21.924166666666665,,21.924166666666665
382,2016-12-03,15.484166666666662,,15.484166666666662
382,2016-12-04,22.315833333333327,,22.315833333333327
382,2016-12-05,17.956249999999997,,17.956249999999997
382,2016-12-06,10.891666666666664,,10.891666666666664
382,2016-12-07,6.006666666666667,,6.006666666666667
382,2016-12-08,8.79875,,8.79875
382,2016-12-09,18.020416666666666,,18.020416666666666
382,2016-12-10,13.89583333333333,,13.89583333333333
382,2016-12-11,12.27416666666666,,12.27416666666666
382,2016-12-12,3.9720833333333334,,3.9720833333333334
382,2016-12-13,17.54166666666666,,17.54166666666666
382,2016-12-14,21.54166666666666,,21.54166666666666
382,2016-12-15,19.236666666666665,,19.236666666666665
382,2016-12-16,19.650833333333328,,19.650833333333328
382,2016-12-17,0.10791666666666665,,0.10791666666666665
382,2016-12-18,3.362083333333333,,3.362083333333333
382,2016-12-19,22.79958333333333,,22.79958333333333
382,2016-12-20,18.965833333333332,,18.965833333333332
382,2016-12-21,12.38166666666666,,12.38166666666666
382,2016-12-22,12.482499999999995,,12.482499999999995
382,2016-12-23,20.197083333333328,,20.197083333333328
382,2016-12-24,2.861666666666667,,2.861666666666667
382,2016-12-25,22.024999999999995,,22.024999999999995
382,2016-12-26,5.674583333333334,,5.674583333333334
382,2016-12-27,12.159999999999997,,12.159999999999997
382,2016-12-28,7.480416666666666,,7.480416666666666
382,2016-12-29,1.4425000000000001,,1.4425000000000001
382,2016-12-30,13.17583333333333,,13.17583333333333
382,2016-12-31,0.0008333333333333334,,0.0008333333333333334
382,2017-01-01,22.245416666666667,,22.245416666666667
382,2017-01-02,3.6445833333333333,,3.6445833333333333
382,2017-01-03,3.0175,,3.0175
382,2017-01-04,14.505416666666664,,14.505416666666664
382,2017-01-05,15.84458333333333,,15.84458333333333
382,2017-01-06,9.803749999999999,,9.803749999999999
382,2017-01-07,0.3541666666666666,,0.3541666666666666
382,2017-01-08,0.19124999999999992,,0.19124999999999992
382,2017-01-09,1.1220833333333335,,1.1220833333333335
382,2017-01-10,1.6470833333333337,,1.6470833333333337
382,2017-01-11,16.519166666666663,,16.519166666666663
382,2017-01-12,0.0004166666666666667,,0.0004166666666666667
382,2017-01-13,23.353749999999994,,23.353749999999994
382,2017-01-14,11.265833333333331,,11.265833333333331
382,2017-01-15,3.704166666666666,,3.704166666666666
382,2017-01-16,25.693333333333328,,25.693333333333328
382,2017-01-17,2.6616666666666666,,2.6616666666666666
382,2017-01-18,3.887083333333333,,3.887083333333333
382,2017-01-19,21.783749999999998,,21.783749999999998
382,2017-01-20,8.09291666666667,,8.09291666666667
382,2017-01-21,11.922083333333328,,11.922083333333328
382,2017-01-22,9.033333333333333,,9.033333333333333
382,2017-01-23,3.709166666666667,,3.709166666666667
382,2017-01-24,3.5775,,3.5775
382,2017-01-25,27.11708333333333,,27.11708333333333
382,2017-01-26,12.003749999999997,,12.003749999999997
382,2017-01-27,9.776666666666667,,9.776666666666667
382,2017-01-28,9.94375,,9.94375
382,2017-01-29,27.810416666666665,,27.810416666666665
382,2017-01-30,20.847916666666666,,20.847916666666666
382,2017-01-31,0.0004166666666666667,,0.0004166666666666667
382,2017-02-01,12.156249999999998,,12.156249999999998
382,2017-02-02,22.15791666666666,,22.15791666666666
382,2017-02-03,20.19625,,20.19625
382,2017-02-04,33.27375,,33.27375
382,2017-02-05,12.789999999999994,,12.789999999999994
382,2017-02-06,31.549999999999997,,31.549999999999997
382,2017-02-07,5.810833333333332,,5.810833333333332
382,2017-02-08,24.634583333333328,,24.634583333333328
382,2017-02-09,0.024583333333333336,,0.024583333333333336
382,2017-02-10,3.9933333333333327,,3.9933333333333327
382,2017-02-11,5.764583333333332,,5.764583333333332
382,2017-02-12,0.8274999999999998,,0.8274999999999998
382,2017-02-13,13.649999999999997,,13.649999999999997
382,2017-02-14,18.070416666666663,,18.070416666666663
382,2017-02-15,16.361249999999995,,16.361249999999995
382,2017-02-16,33.791666666666664,,33.791666666666664
382,2017-02-17,37.88541666666666,,37.88541666666666
382,2017-02-18,35.27749999999999,,35.27749999999999
382,2017-02-19,27.852499999999992,,27.852499999999992
382,2017-02-20,37.84208333333333,,37.84208333333333
382,2017-02-21,31.694583333333327,,31.694583333333327
382,2017-02-22,21.96291666666666,,21.96291666666666
382,2017-02-23,16.08083333333333,,16.08083333333333
382,2017-02-24,36.589999999999996,,36.589999999999996
382,2017-02-25,25.894166666666663,,25.894166666666663
382,2017-02-26,41.4275,,41.4275
382,2017-02-27,33.25124999999999,,33.25124999999999
382,2017-02-28,0.0004166666666666667,,0.0004166666666666667
382,2017-03-01,12.21958333333333,,12.21958333333333
382,2017-03-02,44.5025,,44.5025
382,2017-03-03,34.22083333333333,,34.22083333333333
382,2017-03-04,34.988749999999996,,34.988749999999996
382,2017-03-05,0.0,,0.0
382,2017-03-06,42.59499999999999,,42.59499999999999
382,2017-03-07,11.113749999999998,,11.113749999999998
382,2017-03-08,38.04333333333334,,38.04333333333334
382,2017-03-09,45.915833333333325,,45.915833333333325
382,2017-03-10,0.42916666666666664,,0.42916666666666664
382,2017-03-11,2.5704166666666666,,2.5704166666666666
382,2017-03-12,13.657499999999999,,13.657499999999999
382,2017-03-13,42.836666666666666,,42.836666666666666
382,2017-03-14,0.34416666666666657,,0.34416666666666657
382,2017-03-15,1.37,,1.37
382,2017-03-16,2.8145833333333337,,2.8145833333333337
382,2017-03-17,7.535416666666667,,7.535416666666667
382,2017-03-18,3.73,,3.73
382,2017-03-19,34.72875,,34.72875
382,2017-03-20,0.0008333333333333334,,0.0008333333333333334
382,2017-03-21,0.0,,0.0
382,2017-03-22,53.94499999999999,,53.94499999999999
382,2017-03-23,53.43541666666667,,53.43541666666667
382,2017-03-24,22.8925,,22.8925
382,2017-03-25,16.81333333333333,,16.81333333333333
382,2017-03-26,9.931666666666667,,9.931666666666667
382,2017-03-27,19.352499999999996,,19.352499999999996
382,2017-03-28,6.4925,,6.4925
382,2017-03-29,53.06333333333333,,53.06333333333333
382,2017-03-30,41.41208333333333,,41.41208333333333
382,2017-03-31,0.0,,0.0
382,2017-04-01,21.256666666666664,,21.256666666666664
382,2017-04-02,54.61124999999999,,54.61124999999999
382,2017-04-03,47.31416666666669,,47.31416666666669
382,2017-04-04,13.444583333333332,,13.444583333333332
382,2017-04-05,31.25166666666667,,31.25166666666667
382,2017-04-06,5.3775,,5.3775
382,2017-04-07,17.70708333333333,,17.70708333333333
382,2017-04-08,59.568333333333335,,59.568333333333335
382,2017-04-09,57.22499999999999,,57.22499999999999
382,2017-04-10,54.89124999999999,,54.89124999999999
382,2017-04-11,52.916666666666664,,52.916666666666664
382,2017-04-12,27.870416666666667,,27.870416666666667
382,2017-04-13,50.7525,,50.7525
382,2017-04-14,49.56041666666666,,49.56041666666666
382,2017-04-15,34.78583333333333,,34.78583333333333
382,2017-04-16,46.88374999999999,,46.88374999999999
382,2017-04-17,30.855416666666667,,30.855416666666667
382,2017-04-18,59.135416666666664,,59.135416666666664
382,2017-04-19,37.59625,,37.59625
382,2017-04-20,37.02458333333333,,37.02458333333333
382,2017-04-21,14.183750000000002,,14.183750000000002
382,2017-04-22,15.139166666666666,,15.139166666666666
382,2017-04-23,55.17958333333333,,55.17958333333333
382,2017-04-24,25.985833333333332,,25.985833333333332
382,2017-04-25,12.997499999999997,,12.997499999999997
382,2017-04-26,0.0008333333333333334,,0.0008333333333333334
382,2017-04-27,36.818333333333335,,36.818333333333335
382,2017-04-28,55.13958333333335,,55.13958333333335
382,2017-04-29,48.44291666666667,,48.44291666666667
382,2017-04-30,27.3175,,27.3175
382,2017-05-01,40.41958333333333,,40.41958333333333
382,2017-05-02,51.76708333333334,,51.76708333333334
382,2017-05-03,44.69583333333333,,44.69583333333333
382,2017-05-04,61.050000000000004,,61.050000000000004
382,2017-05-05,7.36,,7.36
382,2017-05-06,54.151250000000005,,54.151250000000005
382,2017-05-07,28.542499999999993,,28.542499999999993
382,2017-05-08,49.52458333333334,,49.52458333333334
382,2017-05-09,47.37375,,47.37375
382,2017-05-10,51.27666666666667,,51.27666666666667
382,2017-05-11,44.47,,44.47
382,2017-05-12,46.544166666666655,,46.544166666666655
382,2017-05-13,8.469166666666665,,8.469166666666665
382,2017-05-14,51.687916666666666,,51.687916666666666
382,2017-05-15,52.19666666666666,,52.19666666666666
382,2017-05-16,56.534166666666664,,56.534166666666664
382,2017-05-17,60.70249999999999,,60.70249999999999
382,2017-05-18,58.99250000000001,,58.99250000000001
382,2017-05-19,58.119166666666665,,58.119166666666665
382,2017-05-20,23.128750000000007,,23.128750000000007
382,2017-05-21,63.306250000000006,,63.306250000000006
382,2017-05-22,7.946666666666666,,7.946666666666666
382,2017-05-23,36.16416666666667,,36.16416666666667
382,2017-05-24,38.23333333333333,,38.23333333333333
382,2017-05-25,10.536666666666667,,10.536666666666667
382,2017-05-26,41.82041666666667,,41.82041666666667
382,2017-05-27,33.321666666666665,,33.321666666666665
382,2017-05-28,51.67416666666668,,51.67416666666668
382,2017-05-29,15.396666666666667,,15.396666666666667
382,2017-05-30,0.0004166666666666667,,0.0004166666666666667
382,2017-05-31,49.387499999999996,,49.387499999999996
382,2017-06-01,55.620833333333316,,55.620833333333316
382,2017-06-02,58.617916666666666,,58.617916666666666
382,2017-06-03,48.122083333333336,,48.122083333333336
382,2017-06-04,28.901666666666667,,28.901666666666667
382,2017-06-05,21.554583333333337,,21.554583333333337
382,2017-06-06,15.165833333333333,,15.165833333333333
382,2017-06-07,42.69875,,42.69875
382,2017-06-08,41.77375,,41.77375
382,2017-06-09,58.66958333333332,,58.66958333333332
382,2017-06-10,59.44833333333333,,59.44833333333333
382,2017-06-11,61.95541666666666,,61.95541666666666
382,2017-06-12,60.66166666666666,,60.66166666666666
382,2017-06-13,51.81666666666667,,51.81666666666667
382,2017-06-14,46.514166666666675,,46.514166666666675
382,2017-06-15,63.30083333333334,,63.30083333333334
382,2017-06-16,14.149583333333334,,14.149583333333334
382,2017-06-17,19.88375,,19.88375
382,2017-06-18,53.73,,53.73
382,2017-06-19,50.28041666666667,,50.28041666666667
382,2017-06-20,61.768750000000004,,61.768750000000004
382,2017-06-21,48.943749999999994,,48.943749999999994
382,2017-06-22,62.41125,,62.41125
382,2017-06-23,37.65416666666666,,37.65416666666666
382,2017-06-24,55.35624999999999,,55.35624999999999
382,2017-06-25,56.49666666666667,,56.49666666666667
382,2017-06-26,55.18875,,55.18875
382,2017-06-27,51.926666666666655,,51.926666666666655
382,2017-06-28,57.490833333333335,,57.490833333333335
382,2017-06-29,59.15666666666666,,59.15666666666666
382,2017-06-30,59.19625000000001,,59.19625000000001
382,2017-07-01,42.04208333333333,,42.04208333333333
382,2017-07-02,60.825416666666655,,60.825416666666655
382,2017-07-03,46.885416666666664,,46.885416666666664
382,2017-07-04,52.06041666666667,,52.06041666666667
382,2017-07-05,59.83833333333333,,59.83833333333333
382,2017-07-06,32.33833333333333,,32.33833333333333
382,2017-07-07,25.461249999999996,,25.461249999999996
382,2017-07-08,50.37750000000002,,50.37750000000002
382,2017-07-09,58.39625,,58.39625
382,2017-07-10,56.49500000000001,,56.49500000000001
382,2017-07-11,42.55166666666667,,42.55166666666667
382,2017-07-12,42.6975,,42.6975
382,2017-07-13,39.40583333333333,,39.40583333333333
382,2017-07-14,10.268333333333333,,10.268333333333333
382,2017-07-15,39.66791666666667,,39.66791666666667
382,2017-07-16,60.31666666666666,,60.31666666666666
382,2017-07-17,47.84083333333333,,47.84083333333333
382,2017-07-18,59.92333333333335,,59.92333333333335
382,2017-07-19,56.937083333333334,,56.937083333333334
382,2017-07-20,50.28624999999999,,50.28624999999999
382,2017-07-21,55.35249999999997,,55.35249999999997
382,2017-07-22,49.715833333333336,,49.715833333333336
382,2017-07-23,30.383749999999996,,30.383749999999996
382,2017-07-24,22.767916666666665,,22.767916666666665
382,2017-07-25,24.576666666666668,,24.576666666666668
382,2017-07-26,61.99875000000001,,61.99875000000001
382,2017-07-27,35.377916666666664,,35.377916666666664
382,2017-07-28,39.59333333333333,,39.59333333333333
382,2017-07-29,29.62166666666666,,29.62166666666666
382,2017-07-30,60.85916666666666,,60.85916666666666
382,2017-07-31,57.46708333333334,,57.46708333333334
382,2017-08-01,56.04749999999999,,56.04749999999999
382,2017-08-02,37.543749999999996,,37.543749999999996
382,2017-08-03,56.62500000000001,,56.62500000000001
382,2017-08-04,54.04458333333334,,54.04458333333334
382,2017-08-05,34.79708333333334,,34.79708333333334
382,2017-08-06,41.318749999999994,,41.318749999999994
382,2017-08-07,6.940833333333333,,6.940833333333333
382,2017-08-08,40.123333333333335,,40.123333333333335
382,2017-08-09,56.568749999999994,,56.568749999999994
382,2017-08-10,56.57999999999999,,56.57999999999999
382,2017-08-11,50.527499999999996,,50.527499999999996
382,2017-08-12,24.81375,,24.81375
382,2017-08-13,55.67166666666665,,55.67166666666665
382,2017-08-14,33.51416666666666,,33.51416666666666
382,2017-08-15,12.5575,,12.5575
382,2017-08-16,50.70416666666667,,50.70416666666667
382,2017-08-17,54.74458333333333,,54.74458333333333
382,2017-08-18,14.034999999999997,,14.034999999999997
382,2017-08-19,47.786249999999995,,47.786249999999995
382,2017-08-20,54.48291666666666,,54.48291666666666
382,2017-08-21,44.69916666666666,,44.69916666666666
382,2017-08-22,43.44833333333332,,43.44833333333332
382,2017-08-23,46.17541666666667,,46.17541666666667
382,2017-08-24,49.37375,,49.37375
382,2017-08-25,38.242499999999986,,38.242499999999986
382,2017-08-26,53.95791666666668,,53.95791666666668
382,2017-08-27,40.744583333333324,,40.744583333333324
382,2017-08-28,40.03666666666667,,40.03666666666667
382,2017-08-29,8.097916666666666,,8.097916666666666
382,2017-08-30,54.02083333333332,,54.02083333333332
382,2017-08-31,41.83583333333333,,41.83583333333333
382,2017-09-01,53.22124999999999,,53.22124999999999
382,2017-09-02,23.109166666666667,,23.109166666666667
382,2017-09-03,18.187916666666663,,18.187916666666663
382,2017-09-04,51.61166666666666,,51.61166666666666
382,2017-09-05,48.73541666666666,,48.73541666666666
382,2017-09-06,14.061666666666666,,14.061666666666666
382,2017-09-07,37.41375,,37.41375
382,2017-09-08,41.18458333333333,,41.18458333333333
382,2017-09-09,46.19416666666667,,46.19416666666667
382,2017-09-10,45.96666666666665,,45.96666666666665
382,2017-09-11,46.8775,,46.8775
382,2017-09-12,40.31083333333333,,40.31083333333333
382,2017-09-13,40.29791666666666,,40.29791666666666
382,2017-09-14,28.557083333333328,,28.557083333333328
382,2017-09-15,46.11708333333333,,46.11708333333333
382,2017-09-16,26.994583333333328,,26.994583333333328
382,2017-09-17,34.48166666666666,,34.48166666666666
382,2017-09-18,14.74,,14.74
382,2017-09-19,18.082083333333333,,18.082083333333333
382,2017-09-20,30.648333333333337,,30.648333333333337
382,2017-09-21,28.43958333333333,,28.43958333333333
382,2017-09-22,45.67666666666667,,45.67666666666667
382,2017-09-23,44.22791666666666,,44.22791666666666
382,2017-09-24,41.83958333333333,,41.83958333333333
382,2017-09-25,40.62999999999999,,40.62999999999999
382,2017-09-26,34.10083333333333,,34.10083333333333
382,2017-09-27,27.749583333333334,,27.749583333333334
382,2017-09-28,43.70875,,43.70875
382,2017-09-29,36.780833333333334,,36.780833333333334
382,2017-09-30,24.470416666666665,,24.470416666666665
382,2017-10-01,43.475,,43.475
382,2017-10-02,42.80916666666667,,42.80916666666667
382,2017-10-03,37.90458333333333,,37.90458333333333
382,2017-10-04,41.052083333333336,,41.052083333333336
382,2017-10-05,34.00125,,34.00125
382,2017-10-06,34.68249999999999,,34.68249999999999
382,2017-10-07,30.490416666666665,,30.490416666666665
382,2017-10-08,7.225833333333333,,7.225833333333333
382,2017-10-09,4.835833333333333,,4.835833333333333
382,2017-10-10,35.47666666666667,,35.47666666666667
382,2017-10-11,20.360416666666662,,20.360416666666662
382,2017-10-12,26.72375,,26.72375
382,2017-10-13,25.70041666666667,,25.70041666666667
382,2017-10-14,18.281249999999996,,18.281249999999996
382,2017-10-15,13.864583333333327,,13.864583333333327
382,2017-10-16,17.959999999999997,,17.959999999999997
382,2017-10-17,38.221666666666664,,38.221666666666664
382,2017-10-18,34.95416666666666,,34.95416666666666
382,2017-10-19,36.25416666666667,,36.25416666666667
382,2017-10-20,35.12333333333333,,35.12333333333333
382,2017-10-21,32.27458333333333,,32.27458333333333
382,2017-10-22,32.98499999999999,,32.98499999999999
382,2017-10-23,23.124583333333334,,23.124583333333334
382,2017-10-24,13.349999999999996,,13.349999999999996
382,2017-10-25,11.0525,,11.0525
382,2017-10-26,9.602500000000001,,9.602500000000001
382,2017-10-27,32.99208333333333,,32.99208333333333
382,2017-10-28,31.851249999999993,,31.851249999999993
382,2017-10-29,2.7191666666666667,,2.7191666666666667
382,2017-10-30,28.63541666666666,,28.63541666666666
382,2017-10-31,27.971249999999998,,27.971249999999998
382,2017-11-01,14.814166666666665,,14.814166666666665
382,2017-11-02,22.18041666666667,,22.18041666666667
382,2017-11-03,24.535416666666663,,24.535416666666663
382,2017-11-04,24.97708333333333,,24.97708333333333
382,2017-11-05,4.787083333333334,,4.787083333333334
382,2017-11-06,6.119166666666666,,6.119166666666666
382,2017-11-07,8.75625,,8.75625
382,2017-11-08,14.93625,,14.93625
382,2017-11-09,26.51958333333333,,26.51958333333333
382,2017-11-10,26.359583333333333,,26.359583333333333
382,2017-11-11,30.29833333333333,,30.29833333333333
382,2017-11-12,22.981666666666666,,22.981666666666666
382,2017-11-13,7.62875,,7.62875
382,2017-11-14,15.33875,,15.33875
382,2017-11-15,24.450416666666666,,24.450416666666666
382,2017-11-16,14.982916666666663,,14.982916666666663
382,2017-11-17,27.261666666666656,,27.261666666666656
382,2017-11-18,7.172916666666667,,7.172916666666667
382,2017-11-19,23.587499999999995,,23.587499999999995
382,2017-11-20,20.97583333333333,,20.97583333333333
382,2017-11-21,24.441666666666663,,24.441666666666663
382,2017-11-22,8.52875,,8.52875
382,2017-11-23,25.888333333333332,,25.888333333333332
382,2017-11-24,24.34916666666666,,24.34916666666666
382,2017-11-25,23.249999999999996,,23.249999999999996
382,2017-11-26,22.077916666666667,,22.077916666666667
382,2017-11-27,21.745833333333334,,21.745833333333334
382,2017-11-28,22.108749999999997,,22.108749999999997
382,2017-11-29,21.99749999999999,,21.99749999999999
382,2017-11-30,14.14958333333333,,14.14958333333333
382,2017-12-01,21.78,,21.78
382,2017-12-02,19.74416666666667,,19.74416666666667
382,2017-12-03,5.6675,,5.6675
382,2017-12-04,20.92958333333333,,20.92958333333333
382,2017-12-05,5.519583333333333,,5.519583333333333
382,2017-12-06,13.483333333333329,,13.483333333333329
382,2017-12-07,22.805833333333336,,22.805833333333336
382,2017-12-08,10.222916666666666,,10.222916666666666
382,2017-12-09,0.8229166666666665,,0.8229166666666665
382,2017-12-10,0.33708333333333323,,0.33708333333333323
382,2017-12-11,2.126666666666667,,2.126666666666667
382,2017-12-12,6.627916666666667,,6.627916666666667
382,2017-12-13,18.493750000000002,,18.493750000000002
382,2017-12-14,1.4891666666666667,,1.4891666666666667
382,2017-12-15,1.7299999999999998,,1.7299999999999998
382,2017-12-16,0.9695833333333335,,0.9695833333333335
382,2017-12-17,8.730416666666667,,8.730416666666667
382,2017-12-18,15.489166666666664,,15.489166666666664
382,2017-12-19,15.142916666666663,,15.142916666666663
382,2017-12-20,12.768749999999997,,12.768749999999997
382,2017-12-21,20.847499999999997,,20.847499999999997
382,2017-12-22,3.314166666666667,,3.314166666666667